Home   Weather   Riyadh   Past weeks
Flag for Saudi Arabia

Past Weather in Riyadh, Saudi Arabia — Yesterday and Last 2 Weeks

Now
86 °F

Clear.


Feels Like: 83 °F
Forecast: 92 / 74 °F
Wind: 9 mph from South

Location: King Khaled International Airport

Current Time: Mar 24, 2019 at 1:12:02 pm

Latest Report: Mar 24, 2019 at 12:00 pm


Visibility: 4 mi

Pressure: 29.83 "Hg (27.91 "Hg at 590m altitude)

Humidity: 25%

Dew Point: 46 °F

Location of RiyadhLocation

Past Weather in Riyadh — Graph

°F

Riyadh Temperature Yesterday

Maximum temperature yesterday: 84 °F (at 5:00 pm)
Minimum temperature yesterday: 61 °F (at 6:00 am)
Average temperature yesterday: 72 °F

High & Low Weather Summary for the Past Weeks

 TemperatureHumidityPressure
High88 °F (Mar 14, 3:00 pm)78% (Mar 24, 4:00 am)30.24 "Hg (Mar 24, 4:00 am)
Low46 °F (Mar 11, 5:00 am)9% (Mar 14, 10:00 am)29.80 "Hg (Mar 14, 4:00 pm)
Average68 °F26%30.02 "Hg
* Reported Mar 9 12:00 pm — Mar 24 12:00 pm, Riyadh. Weather by CustomWeather, © 2019

Note: Actual official high and low records may vary slightly from our data, if they occured in-between our weather recording intervals... More about our weather records

Advertising

Riyadh Weather History for the Previous 24 Hours

Scroll right to see more
 ConditionsComfort  
Time TempWeatherWind HumidityBarometerVisibility
12:00 pm
Sun, Mar 24
86 °FClear.9 mph25%29.83 "Hg4 mi
11:00 am84 °FDuststorm.9 mph33%29.86 "Hg3 mi
10:00 am79 °FHaze.8 mph42%29.89 "Hg3 mi
9:00 am75 °FHaze.7 mph54%29.89 "Hg3 mi
8:00 am72 °FClear.6 mph65%29.89 "Hg5 mi
7:00 am64 °FClear.3 mph78%29.89 "Hg4 mi
6:00 am64 °FClear.2 mph78%29.86 "Hg4 mi
5:00 am64 °FClear.2 mph78%29.86 "Hg10 mi
4:00 am66 °FClear.3 mph78%29.86 "Hg10 mi
3:00 am66 °FClear.3 mph73%29.86 "Hg10 mi
2:00 am66 °FClear.5 mph73%29.89 "Hg10 mi
1:00 am66 °FClear.3 mph73%29.89 "Hg10 mi
12:00 am68 °FClear.6 mph69%29.92 "Hg10 mi
11:00 pm
Sat, Mar 23
70 °FClear.8 mph64%29.92 "Hg10 mi
10:00 pm72 °FClear.13 mph57%29.89 "Hg10 mi
9:00 pm75 °FClear.8 mph36%29.89 "Hg10 mi
8:00 pm77 °FClear.8 mph30%29.89 "Hg10 mi
7:00 pm77 °FClear.9 mph32%29.86 "Hg10 mi
6:00 pm81 °FSunny.8 mph24%29.83 "Hg10 mi
5:00 pm84 °FSunny.7 mph22%29.83 "Hg10 mi
4:00 pm82 °FSunny.6 mph25%29.83 "Hg10 mi
3:00 pm82 °FSunny.5 mph23%29.86 "Hg10 mi
2:00 pm82 °FSunny.7 mph25%29.89 "Hg10 mi
1:00 pm79 °FSunny.8 mph26%29.92 "Hg10 mi
Weather by CustomWeather, © 2019

See weather overview